Regional Weather Roundup
Issued by NWS

Home | Current Version | Previous Version | Text Only | Print | Product List | Glossary On
Versions: 1 2 3 4 5 6 7 8 9 10 11 12 13 14 15 16 17 18 19 20 21 22 23 24 25 26 27 28 29 30 31 32 33 34 35 36 37 38 39 40 41 42 43 44 45 46 47 48 49 50
000
ASUS43 KLOT 281121
RWRIL

ILLINOIS REGIONAL WEATHER ROUNDUP
NATIONAL WEATHER SERVICE CHICAGO/ROMEOVILLE IL
600 AM CDT TUE JUL 28 2015

NOTE: "FAIR" INDICATES FEW OR NO CLOUDS BELOW 12,000 FEET WITH NO
SIGNIFICANT WEATHER AND/OR OBSTRUCTIONS TO VISIBILITY.

* THESE STATIONS ARE NOT UNDER NWS QUALITY CONTROL. THEY ALSO MAY NOT
  REPORT WEATHER SUCH AS PRECIPITATION OR FOG.

ILZ001-002-007-009-015-016-024-281200-
NORTHWEST ILLINOIS

CITY           SKY/WX    TMP DP  RH WIND       PRES   REMARKS
MOLINE         CLEAR     70  67  90 E5        29.94S
STERLING*      CLEAR     66  64  94 E5        29.96R
SAVANNA*       CLEAR     68  64  86 CALM      29.96R
$$

ILZ003-004-008-010-011-017-018-281200-
NORTH CENTRAL ILLINOIS

CITY           SKY/WX    TMP DP  RH WIND       PRES   REMARKS
ROCKFORD       PTCLDY    69  63  81 E6        29.99F
FREEPORT*      CLEAR     61  60  97 E3        29.99S FOG
ROCHELLE*      CLEAR     65  64  96 CALM      29.99S FOG
DE KALB*       CLEAR     64  62  94 E8        30.00F FOG
PERU*          CLEAR     67  65  92 E6        29.97F FOG
$$

ILZ005-006-012>014-019>023-281200-
NORTHEAST ILLINOIS

CITY           SKY/WX    TMP DP  RH WIND       PRES   REMARKS
CHICAGO-OHARE  PTCLDY    71  66  84 CALM      29.99R
CHICAGO-MIDWAY PTCLDY    74  65  73 SE5       29.99R
AURORA         CLEAR     66  62  87 CALM      29.99S FOG
LANSING*       CLEAR     66  60  80 E3        29.99S
JOLIET*        CLEAR     71  65  79 E6        29.98S
WAUKEGAN       CLEAR     62  62 100 CALM      29.99S FOG
DUPAGE AIRPORT CLEAR     68  64  87 E3        29.98F
KANKAKEE*      PTCLDY    68  65  91 CALM      29.99S
WHEELING       CLEAR     68  64  87 CALM      30.00S
MORRIS*        CLEAR     68  65  89 CALM      29.96S
ROMEOVILLE*    MOCLDY    69  63  79 SE5       29.99S
NORTHERLY ISL    N/A     72  67  84 E3          N/A
$$

LMZ740>746-281200-
SOUTHERN LAKE MICHIGAN

STATION/POSITION SKY/WX   TEMP    WIND        PRES    VSBY  WAVE
                          AIR SEA DIR/SP/G                  HT/PER
                          (F)     (DEG/KT/KT) (MB)    (MI)  (FT/S)
HARRISON CRIB              73     140/  5/  7   N/A
BURNHAM HARBOR             73     130/  5       N/A
CALUMET HARBOR             74     100/  4/  5   N/A
BURNS HARBOR               76     130/  8/ 14 1015.9S
MICHIGAN CITY              71     110/  7/  8   N/A
MICHIGAN CITY 6N           72 74  160/  8/ 10   N/A           1
ST. JOSEPH                 70 73  160/ 10/ 10   N/A           1
$$

ILZ025>027-034>036-040-047-049-050-058-095>099-281200-
WEST-CENTRAL ILLINOIS

CITY           SKY/WX    TMP DP  RH WIND       PRES   REMARKS
QUINCY         CLEAR     73  69  87 SE6       29.93S
GALESBURG*     CLEAR     71  70  96 E3        29.95S FOG
MACOMB*        CLOUDY    71  71 100 CALM      29.97R FOG
JACKSONVILLE*  CLEAR     72  71  96 CALM      29.94R
PITTSFIELD*    CLEAR     71  69  95 CALM      29.95S
$$

ILZ028>032-037-038-041>044-048-051>054-059>061-281200-
CENTRAL ILLINOIS

CITY           SKY/WX    TMP DP  RH WIND       PRES   REMARKS
PONTIAC        CLEAR     69  68  96 E5        29.98S
BLOOMINGTON    CLEAR     70  69  96 E3        29.99R
DECATUR        PTCLDY    70  69  97 NE3       29.96R FOG
PEORIA         CLEAR     75  71  87 E5        29.95S FOG
LACON*         CLEAR     68  66  92 CALM      29.95S
LINCOLN*         N/A     71  70  95 CALM      29.96R FOG
SPRINGFIELD    PTCLDY    75  73  93 CALM      29.95S
TAYLORVILLE    PTCLDY    72  72 100 CALM      29.95S FOG
$$

ILZ033-039-045-046-055>057-062-063-281200-
EAST-CENTRAL ILLINOIS

CITY           SKY/WX    TMP DP  RH WIND       PRES   REMARKS
CHAMPAIGN      PTCLDY    72  70  93 E5        29.97R FOG
DANVILLE*      MOCLDY    69  69  99 CALM      29.95R FOG
RANTOUL*       PTCLDY    73  71  93 CALM      29.97R FOG
MATTOON        PTCLDY    72  69  90 CALM      29.96R FOG
PARIS*           N/A     72  72  99 CALM      29.98R FOG
$$

ILZ079-100>102-281200-
SOUTHWEST ILLINOIS

CITY           SKY/WX    TMP DP  RH WIND       PRES   REMARKS
ALTON          PTCLDY    70  70  99 CALM      29.95S
BELLEVILLE     PTCLDY    72  72 100 CALM      29.94R
CAHOKIA*       CLEAR     73  71  93 CALM      29.94R FOG
SPARTA*        CLEAR     72  72  98 CALM      29.97R FOG
$$

ILZ064>066-069>071-074>076-080>082-084>086-088>090-092>094-281200-
SOUTH-CENTRAL ILLINOIS

CITY           SKY/WX    TMP DP  RH WIND       PRES   REMARKS
CARBONDALE     PTCLDY    74  73  97 S3        29.96R
CAIRO*         CLEAR     75  75 100 CALM      29.95R
EFFINGHAM*     CLOUDY    73  70  89 CALM      29.97R FOG
MARION         PTCLDY    75  73  94 CALM      29.97R
MT. VERNON     MOCLDY    73  68  83 CALM      29.98R
CENTRALIA*     MOCLDY    73  70  92 CALM      29.97R FOG
SALEM*         CLOUDY    75  72  91 CALM      29.96R FOG
METROPOLIS*    MOCLDY    76  76 100 CALM      29.97R FOG
$$

ILZ067-068-072-073-078-083-087-091-281200-
SOUTHEAST ILLINOIS

CITY           SKY/WX    TMP DP  RH WIND       PRES   REMARKS
LAWRENCEVILLE  MOCLDY    74  72  93 CALM      29.96R FOG
FLORA*         MOCLDY    73  72  97 CALM      29.96R
FAIRFIELD*     CLOUDY    74  74  98 CALM      29.95R FOG
HARRISBURG*    MOCLDY    74  74 100 CALM      29.96S
ROBINSON*      MOCLDY    71  70  98 CALM      29.96S FOG
CARMI*         CLOUDY    73  69  86 CALM      29.95R FOG
$$

ABBREVIATIONS USED IN REMARKS
   TC - TEMPERATURE IN CELSIUS
  WCI - WIND CHILL INDEX
   HX - HEAT INDEX
  VSB - VISIBILITY
$$



USA.gov is the U.S. government's official web portal to all federal, state and local government web resources and services.